SPHEREX DEB, 63332

Orbit data source: Space-Track

SPHEREX DEB, 63332 is space debris in SSO originally from a launch on Wed, 12 Mar 2025 UTC launched from the Air Force Western Test Range (AFWTR). Debris objects in space refer to the collection of defunct objects orbiting the Earth. Examples of debris include non-operational satellites, rocket bodies, and fragments generated from explosions, collisions, or faulty payload assembly.

Loading next visibility...
Identifier
63332, 2025-047F
Orbit
SSO
Last TLE update
19 hours ago
Origin
Manufacturer
BAEB
Mission
Spacecraft
Bus & Motor
SPHEREX, Unknown motor
Mass
~5 kg wet, ~5 kg dry
Launch date (UTC)
2025-03-12 (4 months ago)
Launch vehicle
Unknown
Launch site
Air Force Western Test Range (AFWTR)
Object type
Payload
Rocket body
Debris
Shape & HBR
Cyl, 0.7 m
Radar Cross Section
0.247 m², Small (<0.1 m²)

Expand to show TLE details & history

TLE from 19 hours ago
0 SPHEREX DEB
1 63332U 25047F   25183.78307107  .00004574  00000-0  68726-3 0  9999
2 63332  97.9556  10.5873 0007369 212.2514 147.8245 14.74974284 15508
Epoch: 2025-07-02T18:47Z
TLE epoch observation values (Epoch: 2025-07-02T18:47:37.34Z)
Latitude
-0.00005°
Longitude
167.6225°
Altitude
652.629 km
Speed
7.529 km/s
True Right ascension
00h 42m 20s
True Declination
0° 00' 00"
Sunlit
Object was in daylight at epoch
Visualization orbit readout
Latitude
37.00394°
Longitude
-5.60475°
Altitude
648.305 km
Speed
7.538 km/s
Apparent Right ascension
13h 08m 38s
Apparent Declination
0° 44' 49"
Sunlit
Object is in daylight
Visualization observer readout
Local Sidereal Time
01:07:42
Azimuth
359.645° N
Elevation
-49.336°
Doppler factor
1
Orbital elements
Apogee altitude
647.456 km
Perigee altitude
637.11 km
Semi-major axis
7,020.42 km
Eccentricity
0.00074
Inclination
97.9556°
RAAN
10.5873°
Arg. of periapsis
212.2514°
True anomaly
Unknown
Mean anomaly
147.8245°
Eccentric anomaly
Unknown
Mean motion
3.68976 °/min
Orbital period
97.57 mins
BSTAR
0.00068726
Loading maneuver chart data...
Loading SW <> Apogee altitude chart data...
Loading historical data...
Loading historical data...
Loading historical data...
Loading historical data...
Loading historical data...
Loading historical data...
Loading historical data...
Other satellites on launch #47 in the year 2025 (2025-03-12 UTC)

SPHEREX DEB Visibility forecast

Observer location: undefined°, undefined°

Span
Click to sort rows by Start time (UTC) header in descending order
Start Az.
Max El. time (UTC)
Max El. Az.
Max El.
End time (UTC)
End Az.
7 mins2025-07-04 00:40:53.869Z37.929° NE2025-07-04 00:43:53.869Z87.005° E27.071°2025-07-04 00:47:53.869Z157.78° S
5 mins2025-07-04 02:18:53.869Z325.618° NNW2025-07-04 02:20:53.869Z288.059° WNW21.33°2025-07-04 02:23:53.869Z242.703° WSW
6 mins2025-07-04 11:38:53.869Z115.117° SE2025-07-04 11:41:53.869Z60.195° ENE23.503°2025-07-04 11:44:53.869Z15.058° NNE
5 mins2025-07-04 13:15:53.869Z221.53° SW2025-07-04 13:17:53.869Z260.735° W24.972°2025-07-04 13:20:53.869Z315.102° NNW
|